Temp
-4 -4 -4 -4 -4 -5 -5 -4 -4 -4 -4 -4 -4 -4 -4 -4 -4 -5 -5 -5 -5 -5 -6 -6 -6 -6 -7 -7 -7 -7 -7 -8 -7 -7 -7 -8 -8 -8 -8 -8 -8 -8 -8 -8 -8 -8 -8 -8 -8
-4 -4 -4 -4 -5 -5 -4 -5 -4 -4 -4 -4 -4 -4 -4 -4 -5 -6 -6 -5 -5 -5 -6 -6 -6 -6 -7 -7 -7 -7 -7 -8 -8 -7 -8 -8 -8 -8 -8 -8 -8 -8 -8 -8 -8 -8 -8 -8 -8
-4 -4 -4 -4 -5 -5 -4 -5 -4 -4 -4 -4 -4 -4 -5 -5 -5 -6 -6 -6 -6 -5 -6 -6 -6 -7 -7 -7 -7 -7 -7 -7 -7 -8 -8 -8 -8 -8 -8 -8 -8 -8 -8 -8 -8 -8 -8 -9 -9
-4 -4 -4 -4 -4 -5 -5 -4 -4 -4 -4 -4 -5 -4 -5 -5 -5 -6 -6 -6 -6 -6 -6 -6 -7 -7 -7 -7 -7 -7 -7 -7 -7 -8 -8 -8 -8 -8 -8 -8 -8 -8 -8 -8 -8 -7 -8 -9 -9
-5 -5 -5 -4 -5 -5 -5 -4 -5 -4 -4 -4 -5 -5 -5 -5 -5 -5 -6 -6 -6 -6 -6 -6 -7 -7 -7 -7 -7 -7 -7 -7 -7 -7 -7 -7 -8 -8 -8 -8 -8 -8 -8 -8 -7 -7 -7 -9 -9
-6 -4 -5 -4 -4 -5 -4 -4 -5 -5 -5 -5 -5 -5 -5 -5 -5 -5 -6 -6 -6 -7 -7 -6 -7 -7 -7 -7 -7 -7 -7 -7 -7 -7 -7 -7 -7 -7 -7 -8 -7 -8 -8 -8 -7 -7 -8 -9 -9
-6 -5 -3 -4 -5 -5 -5 -5 -4 -4 -4 -4 -5 -6 -5 -5 -5 -4 -5 -6 -6 -6 -7 -6 -7 -7 -7 -7 -7 -7 -7 -7 -7 -7 -7 -7 -7 -7 -7 -7 -7 -8 -7 -7 -7 -7 -8 -8 -9
-6 -5 -4 -4 -3 -5 -5 -5 -4 -4 -4 -4 -5 -5 -6 -6 -6 -5 -5 -5 -6 -6 -6 -6 -6 -7 -7 -7 -7 -7 -7 -7 -7 -7 -7 -7 -7 -7 -7 -7 -7 -7 -7 -7 -8 -8 -8 -8 -9
-5 -5 -5 -5 -4 -4 -6 -6 -5 -4 -4 -4 -5 -6 -6 -5 -6 -5 -5 -6 -6 -6 -6 -6 -6 -6 -7 -7 -7 -6 -6 -6 -7 -7 -7 -7 -7 -7 -8 -8 -8 -7 -7 -7 -7 -8 -8 -8 -8
-5 -5 -5 -4 -4 -4 -5 -5 -5 -5 -4 -5 -5 -6 -6 -5 -5 -5 -5 -6 -6 -6 -6 -6 -6 -6 -7 -6 -6 -6 -6 -6 -7 -7 -7 -7 -7 -8 -8 -8 -8 -8 -7 -8 -8 -7 -8 -8 -8
-5 -5 -5 -5 -4 -4 -5 -5 -4 -4 -5 -5 -5 -6 -6 -5 -5 -5 -5 -5 -5 -6 -6 -6 -6 -6 -6 -6 -6 -6 -6 -6 -7 -7 -7 -7 -7 -7 -8 -8 -8 -8 -8 -8 -8 -8 -7 -8 -8
-5 -5 -5 -4 -4 -4 -4 -5 -5 -5 -5 -5 -6 -6 -6 -6 -6 -6 -5 -6 -6 -6 -6 -6 -6 -6 -6 -6 -6 -6 -6 -6 -6 -6 -6 -6 -7 -7 -7 -8 -8 -8 -8 -8 -8 -8 -8 -7 -7
-5 -5 -5 -4 -4 -4 -4 -5 -5 -4 -4 -4 -5 -5 -6 -6 -6 -6 -6 -6 -5 -6 -6 -6 -6 -6 -6 -6 -6 -7 -6 -6 -6 -7 -6 -7 -7 -7 -7 -8 -8 -8 -8 -8 -8 -8 -7 -7 -7
-6 -5 -5 -5 -4 -5 -3 -5 -5 -5 -5 -5 -5 -6 -6 -6 -7 -7 -6 -6 -6 -6 -5 -6 -6 -5 -5 -6 -6 -6 -6 -6 -6 -6 -7 -7 -7 -7 -7 -7 -7 -8 -7 -7 -7 -8 -7 -7 -7
-6 -6 -5 -5 -5 -4 -4 -4 -6 -6 -6 -6 -7 -6 -6 -6 -7 -7 -7 -6 -6 -6 -5 -6 -6 -5 -5 -5 -6 -6 -6 -6 -6 -6 -6 -7 -7 -7 -7 -8 -8 -8 -7 -7 -7 -7 -7 -7 -7
-5 -5 -4 -5 -4 -5 -4 -5 -6 -6 -6 -6 -6 -6 -6 -6 -6 -6 -7 -6 -6 -6 -6 -5 -5 -5 -5 -5 -5 -6 -6 -6 -6 -6 -6 -6 -7 -7 -7 -7 -7 -7 -7 -7 -7 -7 -7 -7 -7
-5 -4 -5 -5 -5 -4 -3 -5 -5 -6 -6 -6 -6 -5 -6 -6 -6 -6 -6 -7 -6 -6 -5 -5 -5 -5 -5 -6 -5 -6 -6 -6 -6 -6 -6 -6 -7 -7 -7 -7 -7 -7 -7 -7 -7 -7 -7 -7 -7
-3 -4 -6 -5 -5 -5 -4 -4 -5 -6 -7 -6 -6 -6 -6 -6 -6 -6 -5 -6 -6 -6 -5 -5 -5 -5 -5 -5 -5 -6 -6 -6 -6 -6 -6 -6 -7 -7 -7 -7 -7 -6 -6 -6 -7 -6 -6 -6 -6
-5 -5 -6 -6 -6 -5 -5 -6 -6 -6 -6 -6 -7 -7 -6 -6 -5 -6 -5 -5 -6 -5 -5 -5 -5 -5 -5 -6 -5 -5 -5 -6 -6 -6 -6 -6 -6 -6 -6 -6 -6 -6 -6 -6 -6 -6 -6 -6 -6
-6 -5 -5 -7 -6 -6 -5 -6 -6 -6 -7 -6 -6 -6 -6 -5 -5 -5 -6 -5 -5 -5 -6 -5 -5 -5 -5 -5 -5 -5 -5 -6 -6 -6 -6 -6 -6 -6 -6 -6 -6 -6 -6 -6 -6 -6 -6 -6 -6
-6 -5 -6 -7 -7 -7 -6 -5 -5 -5 -5 -5 -7 -6 -6 -6 -5 -5 -5 -5 -6 -5 -5 -5 -5 -5 -5 -5 -5 -5 -5 -6 -5 -5 -6 -5 -6 -6 -6 -6 -6 -6 -6 -6 -6 -6 -6 -6 -6
-6 -6 -7 -8 -8 -6 -6 -4 -5 -5 -4 -5 -6 -7 -6 -6 -5 -5 -5 -5 -5 -5 -5 -5 -6 -5 -5 -5 -5 -5 -5 -5 -5 -5 -5 -5 -6 -6 -6 -6 -6 -5 -5 -6 -6 -6 -6 -5 -6
-6 -7 -7 -8 -9 -9 -7 -5 -5 -4 -4 -5 -6 -7 -7 -6 -6 -5 -5 -5 -5 -5 -5 -5 -5 -5 -5 -5 -5 -5 -5 -5 -5 -5 -5 -5 -5 -5 -6 -5 -5 -5 -5 -6 -6 -6 -6 -6 -6
-7 -8 -8 -9 -10 -9 -8 -7 -5 -3 -4 -5 -5 -6 -7 -7 -6 -6 -5 -5 -4 -4 -4 -5 -5 -5 -5 -5 -4 -5 -5 -5 -5 -5 -5 -5 -5 -5 -6 -6 -5 -5 -6 -6 -6 -6 -6 -6 -7
-8 -8 -8 -9 -9 -7 -7 -7 -4 -4 -5 -5 -6 -7 -7 -7 -7 -6 -6 -5 -5 -4 -4 -4 -4 -5 -4 -4 -4 -4 -5 -5 -5 -5 -5 -5 -5 -5 -6 -6 -6 -6 -6 -6 -6 -6 -6 -7 -7
-7 -8 -7 -7 -8 -7 -6 -6 -3 -4 -5 -6 -6 -7 -8 -8 -8 -7 -6 -5 -5 -4 -4 -5 -5 -5 -4 -4 -5 -4 -4 -4 -4 -5 -5 -5 -5 -5 -5 -6 -6 -6 -6 -6 -6 -6 -7 -7 -7
-9 -7 -7 -7 -7 -7 -6 -7 -5 -5 -6 -6 -6 -6 -7 -7 -7 -7 -7 -6 -5 -4 -4 -4 -5 -5 -5 -5 -5 -4 -5 -4 -5 -5 -5 -5 -5 -5 -5 -5 -6 -6 -6 -6 -6 -6 -6 -7 -7
-8 -8 -9 -8 -7 -7 -5 -7 -4 -6 -5 -6 -5 -5 -6 -7 -8 -7 -7 -6 -5 -4 -4 -4 -5 -5 -5 -4 -4 -4 -5 -5 -5 -4 -5 -5 -5 -5 -5 -5 -5 -6 -6 -6 -6 -6 -6 -7 -7
-9 -9 -9 -9 -8 -6 -5 -5 -4 -6 -6 -6 -5 -5 -6 -7 -7 -6 -7 -7 -5 -4 -4 -4 -4 -4 -4 -3 -3 -4 -4 -5 -4 -5 -5 -5 -5 -5 -5 -5 -5 -5 -6 -6 -6 -6 -6 -7 -7
-10 -9 -9 -8 -7 -7 -6 -3 -5 -6 -6 -7 -6 -6 -6 -6 -7 -6 -6 -8 -5 -4 -4 -4 -4 -4 -4 -4 -4 -4 -4 -4 -4 -5 -5 -5 -5 -5 -5 -6 -6 -5 -6 -6 -7 -6 -7 -7 -7
Height
5875 5875 5876 5876 5878 5877 5877 5877 5877 5879 5880 5881 5881 5882 5882 5881 5883 5889 5887 5887 5888 5887 5888 5888 5889 5890 5891 5892 5892 5892 5893 5894 5895 5896 5897 5897 5896 5897 5897 5897 5897 5897 5897 5896 5895 5894 5894 5894 5894
5874 5875 5876 5877 5877 5877 5878 5877 5878 5879 5881 5883 5882 5883 5882 5884 5884 5887 5887 5889 5890 5889 5889 5890 5891 5892 5892 5893 5893 5894 5895 5897 5898 5898 5899 5899 5899 5899 5899 5900 5900 5899 5898 5897 5896 5894 5895 5894 5895
5873 5875 5876 5876 5876 5877 5878 5880 5881 5880 5881 5883 5883 5884 5884 5886 5887 5888 5889 5890 5891 5891 5891 5892 5893 5894 5895 5895 5896 5896 5898 5900 5901 5901 5902 5902 5902 5901 5902 5902 5902 5900 5899 5898 5896 5894 5893 5893 5895
5874 5876 5877 5876 5873 5873 5876 5881 5884 5883 5883 5883 5884 5886 5886 5887 5888 5889 5890 5891 5892 5892 5893 5894 5895 5896 5897 5898 5898 5900 5901 5902 5903 5905 5905 5905 5904 5904 5905 5905 5904 5902 5901 5899 5896 5894 5891 5893 5895
5875 5877 5877 5877 5876 5877 5879 5880 5881 5881 5883 5882 5885 5886 5886 5888 5889 5890 5891 5892 5892 5893 5895 5896 5897 5898 5899 5900 5901 5903 5903 5905 5907 5907 5907 5907 5907 5908 5908 5908 5907 5906 5904 5901 5898 5895 5893 5894 5897
5876 5876 5878 5878 5878 5879 5878 5883 5882 5884 5883 5883 5884 5886 5887 5888 5890 5891 5891 5892 5893 5893 5896 5898 5899 5899 5901 5903 5904 5905 5906 5907 5909 5910 5911 5910 5910 5910 5911 5911 5911 5909 5907 5904 5903 5900 5898 5898 5899
5876 5877 5877 5878 5879 5880 5882 5883 5882 5883 5884 5882 5883 5884 5888 5889 5890 5892 5891 5892 5893 5894 5896 5898 5900 5901 5903 5905 5906 5907 5909 5911 5911 5913 5913 5913 5914 5913 5914 5914 5913 5912 5911 5909 5907 5905 5903 5903 5903
5876 5878 5878 5880 5879 5881 5880 5884 5883 5882 5883 5882 5882 5884 5887 5890 5892 5893 5893 5893 5894 5896 5897 5899 5901 5903 5905 5907 5909 5910 5912 5914 5915 5915 5916 5916 5915 5915 5916 5916 5916 5916 5915 5913 5911 5909 5909 5907 5909
5876 5878 5878 5880 5880 5881 5881 5882 5882 5882 5881 5882 5883 5885 5887 5888 5892 5894 5894 5894 5895 5897 5898 5901 5902 5904 5907 5910 5911 5914 5915 5917 5918 5918 5918 5917 5917 5918 5918 5918 5918 5918 5917 5915 5914 5912 5913 5912 5912
5875 5875 5876 5878 5880 5878 5881 5880 5878 5880 5882 5882 5884 5885 5887 5889 5891 5894 5895 5895 5896 5898 5900 5903 5904 5906 5908 5911 5914 5916 5917 5920 5920 5920 5920 5920 5920 5921 5921 5920 5920 5920 5919 5917 5915 5916 5915 5915 5913
5871 5873 5874 5875 5877 5879 5878 5879 5879 5878 5879 5881 5883 5885 5887 5891 5892 5895 5895 5895 5896 5899 5901 5903 5905 5908 5910 5913 5916 5917 5919 5921 5922 5921 5922 5923 5922 5922 5922 5921 5922 5921 5921 5919 5918 5918 5918 5916 5915
5869 5870 5870 5871 5873 5875 5879 5879 5878 5877 5878 5879 5883 5885 5886 5890 5892 5895 5896 5896 5898 5899 5901 5904 5907 5910 5912 5915 5917 5919 5921 5923 5923 5923 5924 5925 5924 5925 5924 5922 5924 5923 5923 5921 5920 5919 5919 5918 5916
5866 5866 5867 5869 5872 5874 5877 5877 5878 5879 5880 5880 5882 5885 5886 5889 5892 5894 5896 5897 5899 5900 5902 5905 5909 5912 5914 5917 5919 5921 5922 5924 5925 5925 5925 5927 5927 5927 5926 5925 5925 5924 5924 5923 5922 5920 5919 5917 5916
5860 5861 5863 5865 5869 5872 5876 5877 5879 5879 5879 5880 5881 5885 5887 5887 5890 5893 5895 5896 5899 5901 5903 5906 5910 5913 5915 5918 5920 5922 5925 5926 5927 5927 5927 5929 5929 5929 5928 5928 5928 5927 5926 5925 5922 5920 5918 5917 5917
5854 5857 5860 5863 5867 5869 5872 5875 5876 5876 5878 5878 5881 5884 5887 5888 5889 5891 5893 5895 5898 5901 5903 5906 5911 5914 5916 5918 5920 5922 5926 5927 5929 5929 5930 5932 5932 5932 5931 5930 5928 5929 5927 5926 5924 5921 5920 5919 5919
5850 5853 5858 5861 5865 5865 5870 5873 5875 5876 5877 5878 5881 5882 5885 5886 5887 5890 5894 5896 5897 5901 5903 5908 5911 5915 5918 5920 5921 5923 5926 5928 5929 5930 5932 5934 5933 5934 5931 5930 5930 5930 5929 5928 5926 5924 5924 5923 5922
5845 5851 5857 5857 5863 5863 5869 5870 5873 5875 5877 5878 5879 5880 5882 5883 5885 5888 5892 5895 5897 5900 5903 5908 5911 5915 5918 5921 5922 5924 5927 5929 5929 5930 5933 5935 5935 5934 5933 5932 5932 5931 5930 5930 5928 5927 5928 5927 5925
5844 5848 5852 5854 5861 5862 5866 5868 5871 5873 5875 5876 5878 5879 5880 5881 5883 5885 5889 5892 5896 5900 5903 5906 5910 5915 5918 5920 5923 5925 5928 5929 5929 5932 5934 5935 5936 5935 5934 5934 5935 5934 5933 5933 5931 5931 5931 5930 5929
5839 5845 5849 5852 5854 5858 5863 5865 5867 5871 5873 5873 5874 5877 5877 5878 5879 5882 5886 5891 5893 5899 5903 5907 5910 5914 5918 5921 5923 5926 5928 5929 5931 5933 5935 5936 5936 5936 5937 5936 5936 5936 5935 5934 5934 5933 5932 5932 5931
5833 5838 5845 5847 5848 5853 5855 5859 5862 5864 5868 5868 5870 5874 5875 5877 5875 5879 5884 5889 5893 5896 5902 5906 5910 5913 5916 5920 5922 5926 5928 5930 5932 5934 5936 5936 5937 5937 5937 5937 5937 5937 5936 5936 5936 5936 5935 5935 5934
5825 5832 5838 5843 5843 5843 5846 5850 5854 5861 5864 5868 5868 5871 5873 5874 5876 5876 5880 5885 5890 5894 5900 5905 5908 5911 5916 5920 5923 5926 5928 5930 5933 5935 5936 5936 5937 5938 5937 5938 5938 5939 5938 5938 5938 5938 5937 5937 5936
5821 5829 5832 5835 5833 5834 5841 5848 5850 5855 5863 5863 5865 5868 5872 5872 5876 5876 5878 5883 5888 5892 5896 5901 5905 5910 5915 5920 5923 5924 5926 5929 5932 5934 5936 5936 5937 5938 5938 5939 5939 5939 5939 5939 5939 5940 5941 5940 5938
5822 5819 5826 5829 5826 5828 5831 5837 5845 5848 5855 5859 5862 5868 5869 5868 5872 5875 5877 5880 5884 5888 5894 5899 5904 5909 5914 5918 5921 5924 5926 5929 5931 5933 5935 5936 5937 5938 5939 5939 5939 5940 5940 5940 5940 5940 5941 5941 5941
5809 5809 5815 5819 5820 5815 5823 5829 5837 5846 5856 5856 5858 5864 5866 5867 5869 5872 5875 5876 5881 5886 5891 5896 5901 5907 5912 5915 5918 5922 5925 5927 5930 5932 5933 5935 5937 5938 5939 5939 5941 5941 5940 5941 5940 5940 5941 5941 5942
5792 5796 5800 5803 5803 5804 5822 5819 5838 5844 5851 5854 5856 5861 5866 5867 5868 5869 5872 5875 5879 5885 5889 5895 5900 5904 5909 5914 5916 5918 5922 5926 5928 5931 5933 5934 5936 5939 5940 5940 5941 5941 5941 5941 5942 5941 5941 5942 5942
5783 5786 5789 5789 5797 5806 5819 5806 5831 5843 5845 5849 5851 5855 5860 5864 5867 5868 5870 5873 5877 5882 5886 5891 5897 5901 5906 5911 5914 5916 5920 5923 5926 5929 5932 5934 5936 5938 5940 5941 5940 5940 5942 5942 5942 5942 5943 5943 5943
5771 5774 5790 5792 5795 5803 5804 5808 5826 5831 5837 5841 5846 5847 5852 5858 5862 5866 5869 5871 5875 5880 5884 5888 5893 5897 5901 5906 5911 5914 5918 5921 5924 5927 5929 5932 5935 5937 5939 5940 5940 5940 5942 5942 5942 5943 5944 5944 5944
5764 5772 5776 5777 5782 5787 5793 5800 5815 5826 5834 5838 5843 5848 5852 5856 5859 5860 5865 5869 5872 5877 5882 5885 5889 5893 5897 5901 5906 5910 5915 5919 5921 5925 5928 5931 5934 5936 5937 5938 5939 5940 5941 5941 5942 5942 5943 5943 5944
5756 5758 5765 5772 5776 5779 5788 5791 5811 5821 5829 5835 5843 5846 5850 5853 5857 5859 5861 5865 5869 5873 5880 5884 5886 5890 5894 5898 5902 5907 5912 5917 5920 5923 5926 5929 5932 5934 5934 5936 5938 5939 5940 5940 5941 5941 5942 5943 5943
5739 5751 5758 5761 5767 5771 5780 5789 5805 5814 5823 5829 5836 5840 5844 5848 5855 5857 5858 5862 5866 5871 5877 5882 5884 5887 5891 5894 5898 5904 5909 5914 5918 5922 5925 5928 5930 5931 5931 5932 5935 5936 5937 5939 5939 5940 5941 5942 5942
Wind_Speed
5 3 3 6 8 8 7 3 10 10 6 7 10 12 11 15 13 10 8 8 5 8 9 8 8 10 11 10 11 13 12 12 13 12 12 12 12 11 11 11 11 10 8 6 6 4 3 4 6
4 4 5 6 9 7 5 5 6 11 8 8 10 10 12 12 14 10 8 6 4 6 9 9 9 12 11 11 12 12 11 11 11 11 10 11 10 11 11 11 11 10 9 7 5 2 1 4 5
4 5 6 7 10 8 7 10 11 11 10 9 7 9 10 10 9 3 8 7 4 5 9 11 11 12 12 13 12 12 11 11 10 11 11 11 10 10 10 11 10 10 10 10 7 5 2 7 8
3 4 4 1 8 14 16 14 14 15 13 9 8 7 8 7 6 7 9 7 5 5 9 12 13 13 14 14 13 12 12 11 12 12 11 10 9 10 11 11 11 10 12 12 10 7 4 9 11
5 5 4 4 12 16 17 16 14 9 10 11 7 6 7 7 6 9 8 7 8 7 10 12 14 14 15 14 13 13 13 12 12 11 11 11 11 12 12 14 15 16 16 16 19 19 17 17 13
5 8 6 10 16 15 12 10 9 8 8 8 7 6 5 5 8 6 7 8 9 12 12 13 14 15 15 14 14 14 12 12 12 12 13 14 14 13 16 18 19 18 20 21 20 21 20 18 14
10 4 9 19 12 16 12 12 10 8 6 7 7 7 5 6 5 5 6 8 9 13 14 15 15 16 15 14 15 14 13 12 13 16 16 15 15 16 17 16 16 17 19 19 20 21 19 19 17
12 8 18 7 9 11 17 9 7 6 7 4 7 6 7 8 5 3 5 7 9 12 13 15 16 16 16 15 13 13 14 14 17 17 16 16 16 16 16 15 14 15 15 15 16 16 16 16 14
13 11 8 5 7 16 11 12 5 11 6 6 7 8 1 10 7 4 5 8 10 10 13 14 16 16 15 14 14 14 15 16 18 17 16 17 15 15 14 13 13 12 11 12 12 14 14 12 13
14 15 10 8 13 12 13 14 4 7 7 7 9 8 6 5 10 6 5 8 11 11 12 13 15 16 16 15 15 16 17 17 18 18 16 15 14 14 14 15 9 11 11 11 9 11 12 10 9
17 17 14 13 14 12 17 13 11 11 11 9 9 9 11 6 9 4 5 4 13 12 13 13 14 16 16 17 18 18 17 17 17 17 16 13 13 16 13 13 17 13 8 9 11 10 9 9 8
18 17 17 17 12 16 14 9 11 10 11 9 8 10 13 10 9 7 4 6 12 14 13 15 15 16 16 18 19 18 18 17 17 16 13 12 11 13 16 10 15 13 12 10 11 11 7 7 9
20 21 21 18 17 16 6 11 8 3 3 5 8 8 12 11 10 8 3 3 10 14 14 15 18 18 18 21 19 16 17 15 15 14 13 11 12 13 13 14 15 12 14 14 13 11 7 5 6
25 26 24 23 19 20 10 16 10 6 8 5 8 7 10 14 14 11 7 6 12 13 15 16 17 20 20 20 17 16 14 13 13 13 13 12 13 11 11 13 14 14 15 15 16 16 11 7 10
29 27 26 22 21 18 13 12 17 11 12 13 11 4 5 9 11 14 13 11 15 15 15 17 17 21 20 21 19 16 13 14 12 14 15 14 12 11 11 8 14 16 17 19 20 19 15 15 18
32 31 27 21 20 17 19 13 19 8 4 2 4 7 4 8 12 10 12 12 16 16 16 18 18 20 19 17 16 18 15 14 14 15 15 13 10 11 13 13 15 16 17 19 19 20 17 17 16
35 29 24 28 29 22 19 17 13 12 3 6 5 6 7 8 10 11 12 14 15 19 18 20 20 21 21 18 16 15 13 12 15 15 13 12 9 11 14 14 15 16 17 18 19 18 16 15 14
29 27 27 30 31 25 19 20 16 11 10 7 3 4 9 6 12 16 15 18 17 21 22 22 23 22 21 18 16 16 13 10 13 13 13 11 8 11 12 12 14 18 18 18 19 17 16 17 16
31 29 29 32 33 30 28 21 21 17 12 9 7 5 7 8 13 18 19 21 21 23 22 21 22 22 18 18 17 16 13 12 13 12 11 10 8 9 10 11 12 16 16 18 18 19 17 16 16
31 30 27 33 30 26 27 30 24 22 20 16 8 9 7 7 12 17 18 20 23 24 24 22 24 22 22 19 18 14 12 12 14 12 8 9 8 7 8 11 10 11 14 15 15 17 17 15 15
31 26 28 29 32 34 35 35 32 24 27 16 12 17 5 4 11 17 19 22 28 26 25 24 23 23 21 19 18 13 12 11 13 12 9 6 6 5 6 8 8 8 11 11 12 13 14 14 13
30 24 31 31 37 38 33 32 30 26 21 23 13 15 9 3 10 14 18 23 28 29 29 28 27 24 22 20 19 18 15 11 10 9 8 6 5 4 4 6 6 6 8 8 9 11 10 10 9
24 31 31 36 41 40 39 38 33 33 26 30 15 15 10 6 10 13 18 22 31 32 30 28 28 26 23 23 20 18 15 12 11 8 7 5 4 4 3 4 4 3 5 5 6 8 10 9 9
34 36 39 44 47 54 44 43 40 31 26 18 21 22 16 10 11 13 17 20 27 32 30 29 28 25 25 24 20 18 15 14 11 8 7 6 4 3 2 2 2 1 1 3 3 4 9 10 10
44 43 48 54 57 57 44 51 29 32 25 26 23 19 15 13 8 13 17 18 23 26 28 26 26 25 24 24 23 20 17 15 12 8 7 7 6 5 3 1 2 1 2 3 3 3 6 8 12
50 49 51 56 56 51 41 55 27 27 28 27 28 27 22 16 13 12 18 21 24 29 31 27 24 23 24 24 23 21 19 16 13 11 10 9 7 6 5 5 5 3 3 3 4 3 3 4 8
54 55 47 49 55 50 50 52 34 36 35 38 33 34 31 25 20 16 14 19 25 30 32 28 26 24 24 24 23 20 20 17 15 13 13 12 11 9 8 7 6 5 5 4 5 5 3 3 4
54 51 48 55 56 58 55 54 38 38 36 37 37 33 26 25 25 21 19 18 24 30 32 30 28 25 25 25 23 21 22 20 18 15 14 13 11 11 10 9 8 7 7 6 5 6 6 5 4
55 57 55 51 54 55 50 51 36 37 32 34 28 30 28 22 25 27 21 16 23 31 32 28 26 25 24 24 23 23 23 21 17 17 15 12 10 11 12 12 11 11 10 10 8 7 7 7 6
61 59 57 58 57 56 50 41 36 38 38 32 36 26 25 23 26 31 28 17 24 30 32 27 24 24 24 24 25 25 25 20 19 17 14 11 11 12 14 15 14 13 13 11 10 9 9 7 7
Wind_Direction
158 151 115 139 151 150 167 181 134 122 114 101 74 78 98 133 109 114 88 104 94 109 119 133 125 118 112 110 110 115 122 122 113 117 105 99 91 80 76 69 66 69 68 61 61 58 63 85 95
167 171 193 189 204 199 170 158 167 132 116 106 91 80 90 133 130 126 91 96 102 114 126 129 124 117 114 111 109 117 123 118 112 105 97 88 78 70 66 66 62 59 57 55 50 26 118 137 120
194 216 212 223 209 220 162 161 130 138 119 118 113 82 89 120 127 173 123 117 116 121 126 130 127 121 119 112 111 116 122 118 113 106 97 86 79 72 68 66 71 63 62 48 25 341 225 165 141
186 189 202 240 246 211 127 131 135 125 130 118 103 86 89 121 148 143 151 126 124 138 132 134 128 127 120 113 111 115 116 120 116 104 97 89 81 72 73 75 71 64 61 47 47 47 89 149 136
168 195 178 353 125 124 134 140 128 129 131 117 105 70 79 110 127 129 147 141 145 144 139 133 130 126 121 117 114 116 124 121 112 109 102 95 86 84 78 75 73 68 61 53 57 68 93 120 124
155 188 158 157 134 135 171 151 131 152 145 128 108 85 82 102 134 141 138 141 158 146 142 136 132 127 120 121 119 125 127 124 118 106 102 99 94 89 81 76 73 67 63 63 68 75 86 109 115
160 129 169 154 134 153 163 143 188 187 181 144 115 109 98 109 138 133 121 138 155 148 145 143 135 128 123 125 129 133 132 128 117 107 104 99 92 87 81 82 74 63 64 64 70 81 88 92 103
176 161 126 103 106 144 141 160 198 192 211 146 120 122 137 127 135 95 86 128 147 148 147 146 136 131 130 134 139 138 132 122 115 108 103 96 91 90 83 74 72 57 59 69 76 75 86 98 101
200 200 197 198 179 174 185 173 188 216 201 158 135 135 140 136 135 120 98 115 134 145 148 142 135 132 135 139 147 138 127 119 109 103 101 100 93 79 74 69 73 56 73 76 71 89 80 82 88
219 215 220 189 179 160 154 192 246 208 190 154 144 135 110 152 140 140 124 133 140 148 149 142 138 136 140 146 146 135 129 118 115 112 106 98 91 79 63 62 62 62 82 81 70 76 92 91 92
223 226 219 216 210 237 194 205 230 185 193 164 158 148 132 151 131 129 108 112 154 149 145 143 140 141 146 146 143 137 125 116 114 107 99 97 91 78 78 47 69 71 42 58 68 72 77 100 97
219 223 224 228 223 232 203 206 234 200 183 183 178 152 151 162 143 144 120 123 157 152 148 142 141 142 150 143 142 136 124 119 110 101 88 84 81 83 67 57 50 67 68 66 74 70 67 81 98
226 228 228 239 235 230 208 199 221 249 149 181 150 176 162 160 157 143 123 103 157 154 152 148 147 148 148 142 142 137 128 121 117 103 100 93 89 79 70 53 49 53 76 79 69 60 51 27 80
225 227 225 229 233 217 185 159 177 119 71 111 138 172 186 172 170 154 159 141 160 162 154 154 155 155 155 147 146 133 129 125 118 101 113 97 94 78 68 52 60 75 79 72 60 53 61 68 88
222 223 224 231 231 206 186 173 155 156 124 97 86 119 205 184 180 175 179 165 163 165 160 157 162 160 161 154 150 143 143 131 121 108 109 108 95 84 67 73 54 65 68 67 56 55 72 90 98
225 224 224 217 190 172 181 174 164 158 168 189 147 136 159 209 208 202 191 182 171 162 167 163 162 158 162 161 155 146 149 140 131 117 113 107 94 77 72 66 57 62 69 65 56 58 74 85 90
224 227 224 220 213 226 205 178 189 186 209 175 191 173 154 198 216 213 202 192 175 177 174 169 167 165 166 162 154 144 148 147 132 124 119 112 99 76 73 76 56 64 62 61 60 63 76 90 88
233 226 219 226 224 234 225 193 188 186 198 206 225 204 170 148 192 201 207 193 190 183 181 175 170 173 171 168 161 150 158 151 132 137 130 119 106 81 70 77 70 66 66 58 63 76 72 71 74
233 227 221 230 236 241 227 185 200 198 185 180 173 160 173 194 182 200 202 201 195 181 187 180 175 178 173 170 164 162 161 152 146 147 136 122 98 83 77 73 67 57 64 60 62 67 71 73 73
229 228 219 225 239 236 230 194 191 184 198 211 185 219 222 206 179 188 200 198 201 186 186 186 179 178 175 177 173 168 165 156 148 149 155 125 103 82 66 68 68 59 63 61 58 59 63 66 77
219 214 220 222 229 231 229 204 202 202 209 203 190 202 203 198 204 186 188 191 199 191 187 185 181 182 182 181 173 168 171 169 157 161 157 134 109 87 58 53 55 58 69 62 62 50 52 57 66
217 208 218 214 229 233 226 211 208 209 194 178 170 200 216 205 216 196 190 197 194 192 191 185 184 185 185 180 177 182 189 173 173 173 167 150 126 91 53 47 45 44 62 71 64 56 54 45 55
194 214 212 216 227 230 227 213 204 203 192 172 166 183 206 222 220 208 199 192 190 195 191 189 193 188 184 183 188 189 188 182 192 193 197 176 151 108 56 22 41 20 39 62 68 61 48 49 60
199 207 208 214 218 223 226 220 210 210 201 195 195 190 201 186 220 196 206 202 196 193 193 190 189 188 188 189 190 194 189 194 198 204 208 185 170 142 102 28 54 279 6 38 43 49 55 47 52
205 205 206 213 214 224 219 227 213 213 200 197 174 165 181 178 217 204 194 205 201 196 192 193 190 187 189 194 192 193 190 199 202 209 216 198 185 173 167 237 320 33 296 331 26 18 51 53 49
211 212 210 214 215 223 219 231 211 207 200 189 184 171 179 173 191 205 196 196 200 197 191 191 192 192 190 196 199 195 193 199 199 204 207 199 192 183 181 216 271 341 342 310 309 355 351 34 47
210 213 216 223 219 220 222 228 214 205 197 193 195 193 189 177 177 194 188 196 200 199 189 186 189 192 190 192 200 196 194 194 194 206 197 190 187 198 214 227 250 286 313 333 294 280 313 335 356
211 213 210 215 219 220 223 224 215 210 211 209 203 208 190 182 176 186 186 191 199 197 191 188 191 188 191 191 193 193 194 198 201 199 198 198 203 215 231 244 249 258 281 282 296 301 297 299 313
210 214 214 217 222 224 225 228 218 208 209 216 227 200 182 192 206 205 177 191 193 194 191 191 188 191 191 187 190 190 194 199 200 195 200 211 227 241 249 249 246 249 248 267 272 282 290 300 293
211 211 218 218 218 221 222 218 216 209 203 213 215 215 205 199 200 217 197 185 192 194 190 190 192 190 190 189 186 190 196 199 190 196 208 220 234 250 259 259 254 249 250 253 266 271 277 282 284